Torna al catalogo

NOAA 17 DEB

AttivoSSO
NORAD 48731·DEBRIS·🇺🇸 United States

Lanciato Jun 24, 2002 da Vandenberg Space Force Base

Loading…

Prossimi Passaggi (prossime 24 ore)

TLE

AggiornatoSource: Space-Track

Epoca: Sep 14, 2026, 10:20 UTC

1 48731U 02032BQ  26257.43074044  .00003815  00000-0  10633-2 0  9990
2 48731  98.8241 245.4405 0032752  18.7243 341.5145 14.46620258286125

Traccia NOAA 17 DEB in tempo reale con AllMySat

Download on the App Store